Regional Weather Roundup
Issued by NWS

Home | Current Version | Previous Version | Text Only | Print | Product List | Glossary On
Versions: 1 2 3 4 5 6 7 8 9 10 11 12 13 14 15 16 17 18 19 20 21 22 23 24 25 26 27 28 29 30 31 32 33 34 35 36 37 38 39 40 41 42 43 44 45 46 47 48 49 50
000
ASUS46 KLOX 191812
RWRCA

SOUTHERN CALIFORNIA WEATHER ROUNDUP
NATIONAL WEATHER SERVICE OXNARD CALIFORNIA
1100 AM PDT SAT APR 19 2014

NOTE: "FAIR" INDICATES FEW OR NO CLOUDS BELOW 12,000 FEET WITH NO
SIGNIFICANT WEATHER AND/OR OBSTRUCTIONS TO VISIBILITY.

  -  STATIONS PRECEEDED BY AN ASTERISK (*) ARE NOT NWS OR FAA
     STATIONS AND ARE NOT SUBJECT TO NWS AND FAA QUALITY CONTROL.

CAZ041-042-087-191900-
LA AND ORANGE COUNTY COASTAL AREAS


CITY           SKY/WX    TMP DP  RH WIND       PRES   REMARKS
L.A. DOWNTOWN  MOSUNNY   69  54  58 CALM      30.00R
L.A. AIRPORT   PTSUNNY   65  54  67 SW12      30.02R
LONG BEACH     MOSUNNY   68  53  58 S8        30.01R

CITY           SKY/WX    TMP DP  RH WIND       PRES   REMARKS
AVALON           N/A    N/A N/A N/A MISG        N/A
FULLERTON      MOSUNNY   71  54  54 NW5       30.00R
*GETTY CENTER    N/A     64  54  68 SW8         N/A
HAWTHORNE      MOSUNNY   66  50  56 SW8       30.02R
*LEO CARRILLO    N/A     65  54  68 W10         N/A
*LOS ALAMITOS  PTSUNNY   67  56  65 S9        30.01R
*REDONDO BEACH   N/A     66  57  72 W3        30.01R
SANTA ANA      PTSUNNY   68  53  58 W6        30.01R
STA MONICA APT PTSUNNY   67  55  65 SW9       30.02R
TORRANCE       MOSUNNY   72  55  56 NW17      30.02R
*UCLA            N/A     64  52  63 S8        29.99R

$$

CAZ547-548-048-191900-
LA COUNTY VALLEYS AND INLAND EMPIRE


CITY           SKY/WX    TMP DP  RH WIND       PRES   REMARKS
BURBANK        MOSUNNY   69  49  48 CALM      30.00R
VAN NUYS       PTSUNNY   69  50  50 VRB3      30.00R

CITY           SKY/WX    TMP DP  RH WIND       PRES   REMARKS
CORONA AIRPORT PTCLDY    69  53  56 VRB6      30.01R
*CHATSWORTH      N/A     71  53  53 W6        29.98R
CHINO          PTSUNNY   69  54  58 W5        30.01R
MARCH AFB      PTSUNNY   68  52  56 VRB2      30.00S
ONTARIO        PTSUNNY   69  52  54 SW8       30.00R
*PASADENA        N/A     72  55  56 CALM        N/A
RIVERSIDE      SUNNY     68  52  56 SW6       30.00R
SAN BERNARDINO SUNNY     66  48  52 CALM      30.00R HAZE
*SAN GABRIEL     N/A     69  50  49 CALM      29.97S
*SAN RAFAEL HI   N/A     70  56  61 E5          N/A
*SAUGUS          N/A     70  51  50 W6          N/A
*WHITEMAN AP   SUNNY     66  50  55 VRB5      30.03R
*WHITTIER HILL   N/A     70  57  63 SW5         N/A
*WOODLAND HILL   N/A     72  52  49 W3          N/A

$$

CAZ054-055-191900-
LA AND SAN BERNARDINO COUNTY MOUNTAINS


CITY           SKY/WX    TMP DP  RH WIND       PRES   REMARKS
*BIG BEAR AIRP CLEAR     55  30  38 N6        30.16S
MT WILSON NWS    N/A     64  39  39 MISG        N/A
SANDBERG       MOSUNNY   63  45  51 N21       30.10R

$$

CAZ028-029-059-060-099-191900-
ANTELOPE VALLEY AND SURROUNDING AREAS


CITY           SKY/WX    TMP DP  RH WIND       PRES   REMARKS
LANCASTER      MOSUNNY   74  45  35 W8        30.01R
PALMDALE       MOSUNNY   73  43  33 NW7       30.02R
*POPPY PARK      N/A     77  47  34 W9          N/A

CITY           SKY/WX    TMP DP  RH WIND       PRES   REMARKS
29 PALMS       SUNNY     76  40  27 E5        30.05S
BARSTOW/DAGGET SUNNY     76  40  27 NW5       29.98S
BISHOP         MOSUNNY   70  36  28 CALM      30.02S
CHINA LAKE       N/A     73  44  35 CALM      29.98S
EDWARDS AFB    PTSUNNY   72  45  37 VRB5      29.99R
MOJAVE         FAIR      72  45  37 E7        30.01S
NEEDLES        SUNNY     82  42  24 VRB3      29.94S
VICTORVILLE    MOSUNNY   72  36  26 W3        30.03R

$$

CAZ039-040-191900-
VENTURA AND SANTA BARBARA COUNTY COAST


CITY           SKY/WX    TMP DP  RH WIND       PRES   REMARKS
CAMARILLO      PTSUNNY   67  52  58 VRB6      30.01S
NWS OXNARD       N/A     66  53  62 W6        30.02R
OXNARD AIRPORT PTSUNNY   63  52  67 W10       30.02R
*POINT MUGU    PTSUNNY   67  54  63 W10       30.02R
SBA APT/GOLETA SUNNY     64  54  69 S5        30.01S
*VENTURA         N/A     66  53  63 SW7       30.05S

$$

CAZ044-045-191900-
VENTURA COUNTY VALLEYS


CITY           SKY/WX    TMP DP  RH WIND       PRES   REMARKS
*SIMI VALLEY     N/A     67  54  63 W1        29.98S
*OJAI            N/A     72  55  54 W3        29.96S
*FILLMORE        N/A     71  57  60 CALM      29.91S

$$

CAZ053-191900-
VENTURA COUNTY MOUNTAINS


CITY           SKY/WX    TMP DP  RH WIND       PRES   REMARKS
*LOCKWOOD VLY    N/A     63  43  48 MISG        N/A
*ROSE VALLEY     N/A     68  52  56 MISG        N/A

$$

CAZ034-035-036-191900-
CENTRAL COAST AND SANTA YNEZ VALLEY


CITY           SKY/WX    TMP DP  RH WIND       PRES   REMARKS
SAN LUIS OBISP MOSUNNY   62  51  67 VRB5      30.06S
SANTA MARIA    MOSUNNY   61  50  67 VRB3      30.06S

CITY           SKY/WX    TMP DP  RH WIND       PRES   REMARKS
*CAL POLY SLO    N/A     59  54  82 W6          N/A
*CAMBRIA         N/A     56  50  80 E5        29.97F
*LOMPOC        SUNNY     63  50  63 W3        30.06F
*PISMO BEACH     N/A     56  51  85 W9        30.08R
*SANTA YNEZ    PTSUNNY   55  50  82 CALM      30.05F

$$

CAZ037-038-051-191900-
SAN LUIS OBISPO COUNTY INTERIOR AND CUYAMA VALLEY


CITY           SKY/WX    TMP DP  RH WIND       PRES   REMARKS
*CUYAMA          N/A     70  42  36 CALM      29.90R
PASO ROBLES    MOSUNNY   59  46  62 VRB5      30.07S

$$

CAZ032-033-061-191900-
SOUTHERN DESERTS


CITY           SKY/WX    TMP DP  RH WIND       PRES   REMARKS
BLYTHE         SUNNY     81  48  31 CALM      29.94R
IMPERIAL       SUNNY     82  49  31 VRB7      29.92S
PALM SPRINGS   MOSUNNY   83  41  22 NE3       29.93S
THERMAL        SUNNY     85  45  24 VRB3      29.90R

$$

ELSEWHERE ACROSS THE WESTERN UNITED STATES AND MEXICO


CITY           SKY/WX    TMP DP  RH WIND       PRES   REMARKS
DENVER, CO     CLOUDY    60  35  39 E7        30.08F
GRAND CANYON,  MOSUNNY   58  32  37 S7G17     30.14R
HONOLULU, HI   MOSUNNY   77  63  61 NE17G26   30.10R
KAHULUI, MAUI  PTSUNNY   75  64  69 NE16      30.10R
LAKE TAHOE, CA SUNNY     59  31  34 S17       30.11S
LAS VEGAS, NV  MOSUNNY   76  38  25 CALM      29.95S
MAMMOTH LAKES, FAIR      59  28  31 SE5       30.15S
MEXICO CITY, M MOSUNNY   70  48  46 NW5       30.34F
PHOENIX, AZ    PTSUNNY   79  45  29 S5        29.95S
PORTLAND, OR   LGT RAIN  51  43  74 S15G21    29.90R
RENO, NV       PTSUNNY   65  34  31 CALM      30.04S
SALT LAKE CITY PTSUNNY   64  40  41 CALM      30.03S
SAN DIEGO, CA  PTSUNNY   68  52  56 W8        30.02S
SAN FRANCISCO, MOSUNNY   60  47  61 W12       30.10R
SAN JOSE, CA   MOSUNNY   62  37  39 N7        30.09R
SEATTLE, WA    CLOUDY    49  40  71 W9G20     29.84R
TIJUANA, MEX   MOSUNNY   66  52  59 W9        30.03R

$$

STATION/POSITION TIME  TEMP    WIND        PRES    VSBY  WAVE
                       AIR SEA DIR/SP/G                  HT/PER
                 (UTC) (F)     (DEG/KT/KT) (MB)    (MI)  (FT/S)
POINT ARGUELLO B NOT AVBL
WEST SANTA BARBA 1800   53 54  320/ 17/ 21 1016.6S         6/15
POINT CONCEPTION NOT AVBL
EAST SANTA BARBA NOT AVBL
SANTA MONICA BAY 1800   58 60  310/  8/ 10 1016.6R         4/11



USA.gov is the U.S. government's official web portal to all federal, state and local government web resources and services.